User: anonymous   Login
Location: Helsinki
(60.1674°N, 24.9426°E)
Time: 21:20:04
(UTC+02:00)
Language:

COSMOS 2543 - Orbit

View from above orbital plane
View from above orbital plane
View from above satellite
View from above satellite

Ground track
Ground track

The orbit data is extracted from the following two-line orbital elements,

1 44835U 19079D   21338.91726370  .00002164  00000-0  80284-4 0  9991
2 44835  97.7934  36.7102 0095192  40.1462 320.6757 15.24636848108092
Epoch (UTC): 04 December 2021 22:00:51
Eccentricity: 0.0095192
inclination: 97.7934°
perigee height: 426 km
apogee height: 557 km
right ascension of ascending node: 36.7102°
argument of perigee: 40.1462°
revolutions per day: 15.24636848
mean anomaly at epoch: 320.6757°
orbit number at epoch: 10809

The dashed part of the orbit path shows where the satellite is in the earth's shadow,  

DLR